Location: Palmerston North
(40.3500°S, 175.6170°E)
Time: 23:59:50
(UTC+13:00)

Cosmos 2322 Rocket - Pass Details

Date: 24 January 2019
Orbit: 834 x 849 km, 71.0° (Epoch: 19 February)

Event Time Altitude Azimuth Distance (km) Brightness Sun altitude
Rises 22:57:12 0° 311° (NW) 3,393 5.3 -20.7°
Reaches altitude 10° 22:59:52 10° 301° (WNW) 2,468 4.7 -21.0°
Maximum altitude 23:04:56 33° 237° (WSW) 1,415 3.9 -21.6°
Drops below altitude 10° 23:10:04 10° 174° (S) 2,501 5.3 -22.2°
Sets 23:12:48 0° 164° (SSE) 3,445 5.9 -22.5°
